Blountville, TN

1:40 AM EST on February 21, 2017 (GMT -0500)
Tri-Cities Regional Tennessee / Virginia

Weather History for KTRI - December, 2012

Change the Weather History Date:

Wednesday, December 12, 2012

  Actual Average Record
Temperature  
Mean Temperature 35 °F 38 °F  
Max Temperature 42 °F 49 °F 75 °F (1949)
Min Temperature 28 °F 28 °F -5 °F (1962)
Degree Days  
Heating Degree Days 30 27  
Month to date heating degree days 199 303  
Since 1 July heating degree days 1179 1189  
Cooling Degree Days 0 0  
Month to date cooling degree days 0 0  
Year to date cooling degree days 1191 981  
Moisture  
Dew Point 28 °F    
Average Humidity 74    
Maximum Humidity 92    
Minimum Humidity 55    
Precipitation  
Precipitation 0.00 in 0.12 in 1.11 in (1956)
Month to date precipitation 1.19 1.38  
Year to date precipitation 43.34 39.02  
Snow  
Snow 0.00 in 0.10 in - ()
Month to date snowfall 0.0 0.7  
Since 1 July snowfall T 1.0  
Snow Depth 0.00 in    
Sea Level Pressure  
Sea Level Pressure 30.26 in    
Wind  
Wind Speed 2 mph (NNE)    
Max Wind Speed 8 mph    
Max Gust Speed 10 mph    
Visibility 10 miles    
Events      
T = Trace of Precipitation, MM = Missing Value Source: NWS Daily Summary

Daily Weather History Graph

Daily Weather History Graph

Search for Another Location

Airport or City:

Trip Planner

Search our weather history database for the weather conditions in past years. The results will help you decide how hot, cold, wet, or windy it might be!

Date:

Astronomy

Dec. 12, 2012 Rise Set
Actual Time 7:32 AM EST 5:14 PM EST
Civil Twilight 7:03 AM EST 5:43 PM EST
Nautical Twilight 6:31 AM EST 6:15 PM EST
Astronomical Twilight 6:00 AM EST 6:47 PM EST
Moon 6:36 AM EST (12/12) 4:50 PM EST (12/12)
Length of Visible Light 10h 39m
Length of Day
9h 42m
Waning Crescent, 1% of the Moon is Illuminated
Dec 12
Waning Crescent
Dec 13
New
Dec 20
First Quarter
Dec 28
Full
Jan 4
Last Quarter

Hourly Weather History & Observations

Time (EST) Temp. Windchill Dew Point Humidity Pressure Visibility Wind Dir Wind Speed Gust Speed Precip Events Conditions
12:00 AM 33.8 °F - 30.2 °F 87% 30.19 in 10.0 mi Calm Calm - N/A   Mostly Cloudy
12:53 AM 34.0 °F - 28.9 °F 82% 30.19 in 10.0 mi Calm Calm - N/A   Mostly Cloudy
1:53 AM 33.1 °F 30.0 °F 28.9 °F 85% 30.20 in 10.0 mi NNW 3.5 mph - N/A   Mostly Cloudy
2:53 AM 33.1 °F - 28.9 °F 85% 30.21 in 10.0 mi Calm Calm - N/A   Mostly Cloudy
3:53 AM 32.0 °F - 28.0 °F 85% 30.21 in 10.0 mi Calm Calm - N/A   Mostly Cloudy
4:53 AM 32.0 °F - 28.0 °F 85% 30.23 in 10.0 mi Calm Calm - N/A   Mostly Cloudy
5:53 AM 32.0 °F - 28.0 °F 85% 30.26 in 10.0 mi Calm Calm - N/A   Mostly Cloudy
6:53 AM 30.9 °F - 28.9 °F 92% 30.27 in 10.0 mi Calm Calm - N/A   Mostly Cloudy
7:53 AM 30.9 °F - 28.0 °F 89% 30.28 in 10.0 mi Calm Calm - N/A   Overcast
8:53 AM 33.1 °F - 30.0 °F 89% 30.30 in 10.0 mi Calm Calm - N/A   Mostly Cloudy
9:53 AM 34.0 °F - 28.9 °F 82% 30.30 in 10.0 mi Calm Calm - N/A   Mostly Cloudy
10:53 AM 37.0 °F - 28.9 °F 73% 30.30 in 10.0 mi Calm Calm - N/A   Mostly Cloudy
11:53 AM 39.0 °F 35.7 °F 27.0 °F 62% 30.29 in 10.0 mi ENE 4.6 mph - N/A   Mostly Cloudy
12:53 PM 39.9 °F 37.8 °F 28.0 °F 63% 30.26 in 10.0 mi ENE 3.5 mph - N/A   Mostly Cloudy
1:53 PM 41.0 °F - 27.0 °F 57% 30.25 in 10.0 mi Calm Calm - N/A   Mostly Cloudy
2:53 PM 41.0 °F 37.1 °F 28.9 °F 62% 30.24 in 10.0 mi NE 5.8 mph - N/A   Mostly Cloudy
3:53 PM 41.0 °F 39.0 °F 28.9 °F 62% 30.26 in 10.0 mi North 3.5 mph - N/A   Mostly Cloudy
4:53 PM 41.0 °F 38.0 °F 30.0 °F 65% 30.25 in 10.0 mi NNE 4.6 mph - N/A   Mostly Cloudy
5:53 PM 36.0 °F 33.3 °F 28.9 °F 76% 30.27 in 10.0 mi North 3.5 mph - N/A   Scattered Clouds
6:53 PM 35.1 °F 32.2 °F 28.9 °F 78% 30.30 in 10.0 mi North 3.5 mph - N/A   Scattered Clouds
7:53 PM 34.0 °F - 28.0 °F 79% 30.30 in 10.0 mi Calm Calm - N/A   Scattered Clouds
8:53 PM 35.1 °F 32.2 °F 28.9 °F 78% 30.30 in 10.0 mi NNW 3.5 mph - N/A   Scattered Clouds
9:53 PM 32.0 °F - 27.0 °F 82% 30.30 in 10.0 mi Calm Calm - N/A   Scattered Clouds
10:53 PM 30.9 °F - 28.0 °F 89% 30.28 in 10.0 mi Calm Calm - N/A   Partly Cloudy
11:53 PM 30.0 °F 25.2 °F 27.0 °F 88% 30.29 in 10.0 mi NNW 4.6 mph - N/A   Mostly Cloudy